Regional Weather Roundup
Issued by NWS

Home | Current Version | Previous Version | Graphics & Text | Print | Product List | Glossary On
Versions: 1 2 3 4 5 6 7 8 9 10 11 12 13 14 15 16 17 18 19 20 21 22 23 24 25 26 27 28 29 30 31 32 33 34 35 36 37 38 39 40 41 42 43 44 45 46 47 48 49 50
000
ASUS43 KMKX 190421
RWRWI

WISCONSIN REGIONAL WEATHER ROUNDUP
NATIONAL WEATHER SERVICE MILWAUKEE/SULLIVAN WI
1100 PM CDT THU SEP 18 2014

NOTE: "FAIR" INDICATES FEW OR NO CLOUDS BELOW 12,000 FEET WITH NO
SIGNIFICANT WEATHER AND/OR OBSTRUCTIONS TO VISIBILITY.

WIZ001-002-006>008-014>016-023>028-190500-
NORTHWEST WISCONSIN

CITY           SKY/WX    TMP DP  RH WIND       PRES   REMARKS
SUPERIOR ARPT  MOCLDY    47  47  97 NE7       30.02S
ASHLAND        PTCLDY    40  38  93 CALM      30.04F
HAYWARD        PTCLDY    53  51  93 S10       30.03F
SIREN          CLEAR     56  53  89 S12       30.01S
RICE LAKE      CLEAR     53  50  91 SE13      30.06F
LADYSMITH      CLEAR     49  47  94 E6        30.09F FOG
EAU CLAIRE     PTCLDY    55  51  86 SE9       30.06F
MENOMONIE      CLEAR     54  52  95 SE8       30.05F
NEW RICHMOND   CLEAR     57  55  93 SE8       30.02S
OSCEOLA        CLEAR     59  57  94 SE12G18   30.03S
$$

WIZ003>005-009-010-017-018-190500-
NORTH CENTRAL WISCONSIN

CITY           SKY/WX    TMP DP  RH WIND       PRES   REMARKS
WOODRUFF       CLEAR     52  49  91 S6        30.11S
RHINELANDER    CLEAR     46  45  96 SE5       30.14S
EAGLE RIVER    CLEAR     46  46 100 S3        30.13R
LAND O LAKES   CLEAR     46  45  98 CALM      30.13S
PHILLIPS       CLEAR     48  47  94 SE8       30.09F
TOMAHAWK       CLEAR     46  45  97 CALM      30.13S FOG
MEDFORD        CLEAR     48  47  96 SE7       30.12S
MERRILL        CLEAR     48  47  97 SE6       30.13F
$$

WIZ029-030-035-036-043>047-190500-
CENTRAL WISCONSIN

CITY           SKY/WX    TMP DP  RH WIND       PRES   REMARKS
WAUSAU         CLEAR     46  45  96 SE6       30.13F
MOSINEE        CLEAR     45  45 100 E7        30.14F FOG
MARSHFIELD     CLEAR     50  48  93 SE6       30.13S
STEVENS POINT  CLEAR     43  43  98 CALM      30.15S FOG
WAUPACA        CLEAR     49  48  95 E3        30.16S FOG
WAUTOMA        CLEAR     45  45 100 CALM      30.16S FOG
WISC RAPIDS    CLEAR     50  48  93 SE7       30.14F
CAMP DOUGLAS   FOG       45  45 100 SE3       30.12F VSB 1/2
$$

WIZ011>013-019>022-031-037>040-048>050-190500-
NORTHEAST WISCONSIN

CITY           SKY/WX    TMP DP  RH WIND       PRES   REMARKS
ANTIGO         CLEAR     45  45  98 S8        30.15F FOG
STURGEON BAY   CLEAR     45  43  93 CALM      30.18S
GREEN BAY      CLEAR     45  44  97 CALM      30.17S FOG
MANITOWOC      CLEAR     45  44  97 CALM      30.18R
APPLETON       PTCLDY    50  46  87 SE7       30.17R
CLINTONVILLE   CLEAR     45  45 100 CALM      30.16S FOG
OSHKOSH        CLEAR     49  47  93 SE3       30.16S
$$

WIZ032>034-041-042-053>061-190500-
SOUTHWEST WISCONSIN

CITY           SKY/WX    TMP DP  RH WIND       PRES   REMARKS
LA CROSSE      CLEAR     58  53  84 SE7       30.09S
SPARTA         CLEAR     50  48  93 CALM      30.11S
VIROQUA        FAIR      54  54 100 SE7       30.11S
BOSCOBEL       FOG       51  49  92 CALM      30.12S VSB 3/4
PRAIRIE DU CHI CLEAR     57  51  80 CALM      30.10S
PLATTEVILLE    FAIR      55  52  89 CALM      30.13F
$$

WIZ056-057-062-063-064-067-068-190500-
SOUTH CENTRAL WISCONSIN

CITY           SKY/WX    TMP DP  RH WIND       PRES   REMARKS
BARABOO/DELLS  CLEAR     52  50  93 CALM      30.14R
LONE ROCK      CLEAR     56  50  80 E3        30.13S
WATERTOWN      CLEAR     49  49 100 CALM      30.15F FOG
MADISON        PTCLDY    53  51  93 SE6       30.15S
MIDDLETON      FAIR      55  55  97 SE5       30.15F
MONROE         CLEAR     52  52 100 E6        30.14F FOG
JANESVILLE     CLEAR     52  50  93 CALM      30.15R FOG
$$

WIZ051-052-058>065-066-070>072-190500-
SOUTHEAST WISCONSIN

CITY           SKY/WX    TMP DP  RH WIND       PRES   REMARKS
MILWAUKEE      CLEAR     53  50  89 CALM      30.17S
WAUKESHA       CLOUDY    50  48  93 E5        30.19R FOG
MILWAUKEE/TIMM CLOUDY    54  50  87 NE3       30.19R
RACINE         CLEAR     52  49  89 CALM      30.18S
BURLINGTON     FOG       47  46  99 CALM      30.17R VSB 1
KENOSHA        FOG       48  48 100 CALM      30.17R VSB 1/4
FOND DU LAC    CLEAR     49  46  90 SE6       30.17S
SHEBOYGAN      CLEAR     44  42  93 CALM      30.18R
WEST BEND      FOG       43  41  93 CALM      30.17F VSB 3/4
JUNEAU         CLEAR     49  48  98 E6        30.17S FOG
$$

LSZ147-162-190500-
LAKE SUPERIOR

STATION/POSITION TIME  TEMP    WIND        PRES    WAVE
                       AIR SEA DIR/SP/G            HT/PER
                 (UTC) (F)     (DEG/KT/KT) (MB)    (FT/S)
W MID LAKE BUOY  0350   47 46  110/  8/ 10 1017.7F   1/ 4
DEVILS ISLAND    0400   49     100/  7/  8 1017.5F
PORT WING        0300   47      40/  7/  8 1017.3F
SAXON HARBOR     0340   43      CALM  / 24 1017.3F
$$

LMZ867-665-643>646-190500-
LAKE MICHIGAN

STATION/POSITION TIME  TEMP    WIND        PRES    WAVE
                       AIR SEA DIR/SP/G            HT/PER
                 (UTC) (F)     (DEG/KT/KT) (MB)    (FT/S)
N MID LAKE BUOY  0350   55 58  140/  6/  8 1022.3R   0
NORTHPORT PIER   0300   53     120/  3/  8 1021.7S
KEWAUNEE LAKESHO 0400   47     300/  2/  2 1020.9R
SHEBOYGAN LAKESH 0400   51 49  340/  1/  2 1022.5R
PORT WASHINGTON  0300   51     270/  2/  3 1022.4
ATWATER BUOY     0400   57      20/  2/  4 1022.8R
MILWAUKEE LAKESH 0400   57      40/  4/  6   N/A
S MID LAKE BUOY  0350   61 64   50/ 10/ 12 1021.7S   2/ 5
KENOSHA   LAKESH 0400   57      30/  5/  7 1021.3R
$$

TC  - TEMPERATURE IN CELSIUS
VSB - VISIBILITY IN STATUTE MILES
WCI - WIND CHILL INDEX
HX  - HEAT INDEX




USA.gov is the U.S. government's official web portal to all federal, state and local government web resources and services.